Location: Unspecified
(42.3650°N, 71.1030°W)
Time: 11:10:18
(UTC+00:00)

Tiros 1 - Pass Details

Date: 02 July 2024
Orbit: 624 x 656 km, 48.4° (Epoch: 20 July)

Event Time Altitude Azimuth Distance (km) Brightness Sun altitude
Rises 23:25:27 0° 202° (SSW) 2,900 10.5 8.9°
Reaches altitude 10° 23:28:09 10° 188° (S) 1,992 9.5 8.4°
Maximum altitude 23:31:44 23° 136° (SE) 1,338 8.3 7.8°
Drops below altitude 10° 23:35:19 10° 85° (E) 1,993 9.2 7.2°
Sets 23:38:00 0° 71° (ENE) 2,903 10.1 6.7°
